Overview Statistics Trail Chart Weather Telemetry Raw packets
 

This is the latest recevied weather packets stored in our database for station/object OE2WAO-15. If no packets are shown the sender has not sent any weather packets the latest 10 day(s).

<< 25 26 27 28 29 30 31 >>
Time Temp. Humidity Pressure Rain* Wind** Luminosity Snow
1788096873 28.33° C 87% 1016.3 hPa - - - -
1788096266 28.33° C 85% 1016.4 hPa - - - -
1788095658 28.33° C 90% 1016.5 hPa - - - -
1788095051 28.33° C 87% 1016.7 hPa - - - -
1788094443 27.78° C 88% 1016.8 hPa - - - -
1788093836 28.33° C 91% 1016.8 hPa - - - -
1788093228 27.78° C 97% 1017 hPa - - - -
1788092624 27.78° C 96% 1017 hPa - - - -
1788092013 27.78° C 94% 1017.1 hPa - - - -
1788091405 27.22° C 93% 1017.2 hPa - - - -
1788090797 27.22° C 95% 1017.3 hPa - - - -
1788090190 27.22° C 99% 1017.4 hPa - - - -
1788089582 26.67° C 99% 1017.5 hPa - - - -
1788088975 26.67° C 99% 1017.6 hPa - - - -
1788088367 26.67° C 99% 1017.7 hPa - - - -
1788087759 26.11° C 99% 1017.8 hPa - - - -
1788087152 26.11° C 99% 1017.9 hPa - - - -
1788086544 25.56° C 99% 1017.9 hPa - - - -
1788085936 25° C 99% 1018 hPa - - - -
1788085329 24.44° C 99% 1018.1 hPa - - - -
1788084721 23.89° C 99% 1018.1 hPa - - - -
1788084114 23.33° C 99% 1018.2 hPa - - - -
1788083506 23.33° C 99% 1018.3 hPa - - - -
1788082898 23.33° C 99% 1018.4 hPa - - - -
1788082298 22.78° C 99% 1018.4 hPa - - - -

* Rain since midnight (hover to see other rain measurements)
** Current wind speed in m/s (hover to see current wind gust speed)